カタログに戻る

DELTA 1 R/B(1)

運用中LEO
NORAD 14051·ROCKET BODY·🇺🇸 United States

打ち上げ Apr 28, 1983 から Cape Canaveral Space Force Station

Loading…

次のパス (今後24時間)

TLE

最新Source: Space-Track

元期: Sep 14, 2026, 01:07 UTC

1 14051U 83041B   26257.04673646  .00006962  00000-0  58941-3 0  9998
2 14051  25.3239 191.4516 0977165  51.7473 316.6982 13.36252308 23728

AllMySatでDELTA 1 R/B(1)をリアルタイム追跡

Download on the App Store